Regional Weather Roundup
Issued by NWS

Home | Current Version | Previous Version | Graphics & Text | Print | Product List | Glossary Off
Versions: 1 2 3 4 5 6 7 8 9 10 11 12 13 14 15 16 17 18 19 20 21 22 23 24 25 26 27 28 29 30 31 32 33 34 35 36 37 38 39 40 41 42 43 44 45 46 47 48 49 50

000
ASUS43 KFSD 091210
RWRSD

WEATHER ROUNDUP FOR SOUTH DAKOTA
NATIONAL WEATHER SERVICE SIOUX FALLS SD
600 AM CST TUE FEB 09 2016

NOTE: "FAIR" INDICATES FEW OR NO CLOUDS BELOW 12,000 FEET WITH NO
SIGNIFICANT WEATHER AND/OR OBSTRUCTIONS TO VISIBILITY.


SDZ001>005-009-010-012>017-091300-
NORTHWEST AND NORTH CENTRAL SOUTH DAKOTA

CITY           SKY/WX    TMP DP  RH WIND       PRES   REMARKS
BUFFALO          N/A     25  15  66 SW6       30.12F WCI  18
FAITH            N/A     27  16  63 NE5       30.22S WCI  22
MOBRIDGE       CLOUDY    23  13  65 NW3       30.23S
$$

SDZ012>016-024>037-041>051-057-063-072>074-091300-
SOUTHWEST AND SOUTH CENTRAL SOUTH DAKOTA

CITY           SKY/WX    TMP DP  RH WIND       PRES   REMARKS
RAPID CTY ARPT CLOUDY    22  14  71 W3        30.22S
PIERRE         CLOUDY    22  11  62 N7        30.27S WCI  13
CUSTER         CLEAR     35  22  58 NW9G21    30.17S WCI  28
ELLSWORTH AFB  CLOUDY    24  16  70 W5        30.20F WCI  18
PHILIP         CLOUDY    30  19  63 NE3       30.24F
PINE RIDGE     CLEAR     21  15  78 CALM      30.23R
SPEARFISH      CLOUDY    39  28  65 W12G20    30.23R
WINNER         CLOUDY    23  11  60 N13       30.26R WCI  11
$$

SDZ004>011-016>023-039-040-091300-
NORTHEAST SOUTH DAKOTA

CITY           SKY/WX    TMP DP  RH WIND       PRES   REMARKS
ABERDEEN       CLOUDY    11   5  77 NW5       30.27S WCI   3
WATERTOWN      CLEAR      3  -3  76 N14       30.17F WCI -15
BROOKINGS      CLEAR      4  -2  76 N10       30.18R WCI -11
SISSETON         N/A      5   0  79 N13       30.23S WCI -12
$$

SDZ017-020-022-023-036>040-048>070-091300-
SOUTHEAST SOUTH DAKOTA

CITY           SKY/WX    TMP DP  RH WIND       PRES   REMARKS
SIOUX FALLS    CLEAR      7   0  73 N20       30.18R WCI -13
HURON          CLOUDY    13   7  77 N16       30.27S WCI  -3
CHAMBERLAIN    CLOUDY    20  10  66 N10       30.27R WCI   9
MITCHELL       CLOUDY    14   8  77 NW13      30.28S WCI   0
YANKTON        PTCLDY    14   5  67 N21G30    30.24R WCI  -4
$$

ABBREVIATIONS USED IN REMARKS
   TC - TEMPERATURE IN CELSIUS
  WCI - WIND CHILL INDEX
   HX - HEAT INDEX
  VSB - VISIBILITY




USA.gov is the U.S. government's official web portal to all federal, state and local government web resources and services.